COSMOS 1375 DEB, 17104

Orbit data source: Space-Track

COSMOS 1375 DEB, 17104 is space debris in LEO originally from a launch on Sun, 06 Jun 1982 UTC launched from the Plesetsk Missile And Space Complex (PKMTR). Debris objects in space refer to the collection of defunct objects orbiting the Earth. Examples of debris include non-operational satellites, rocket bodies, and fragments generated from explosions, collisions, or faulty payload assembly.

Loading next visibility...
Identifier
17104, 1982-055AF
Orbit
LEO
Country
Flag of CISCIS
Related business
Manufacturer
Unknown
Mission
Spacecraft
Bus & Motor
Unknown
Mass
Unknown
Launch date (UTC)
1982-06-06 (44 years ago)
Launch vehicle
Unknown
Launch site
Plesetsk Missile And Space Complex (PKMTR)
Object type
Payload
Rocket body
Debris
Shape & HBR
Unknown shape, 0.1 m
Radar Cross Section
Medium (>0.1 m² and <1 m²)

Expand to show TLE details & history
Last TLE update: 2 days ago

TLE from 2 days ago
0 COSMOS 1375 DEB
1 17104U 82055AF  26171.39275500  .00000105  00000-0  18981-3 0  9997
2 17104  65.8323 143.6582 0043147 301.0970 215.8595 13.76007897 38587
Epoch: 2026-06-20T09:25Z
TLE epoch observation values (Epoch: 2026-06-20T09:25:34.031Z)
Latitude
21.20782°
Longitude
-96.31695°
Altitude
1,005.541 km
Speed
7.338 km/s
True Right ascension
20h 54m 43s
True Declination
21° 05' 46"
Sunlit
Object was in daylight at epoch
Visualization orbit readout
Latitude
Unknown
Longitude
Unknown
Altitude
Unknown
Speed
Unknown
Apparent Right ascension
Unknown
Apparent Declination
Unknown
Sunlit
N/A
Visualization observer readout
Local Sidereal Time
03:41:49
Azimuth
Unknown
Elevation
Unknown
Doppler factor
Unknown
Orbital elements
Apogee altitude
1,008.33 km
Perigee altitude
944.863 km
Semi-major axis
7,354.734 km
Eccentricity
0.00431
Inclination
65.8323°
RAAN
143.6582°
Arg. of periapsis
301.097°
True anomaly
215.57113°
Mean anomaly
215.8595°
Eccentric anomaly
215.71519°
Mean motion
3.44106 °/min
Orbital period
104.62 mins
BSTAR
0.00018981
Loading maneuver chart data...
Computing Atmospheric mass density...
Loading historical data...
Loading historical data...
Loading historical data...
Loading historical data...
Loading historical data...
Loading historical data...
Loading historical data...

Documentation

Showing up to 5 results
|